NOAA NWS Hourly Roundups by Site

Regional Weather Roundup for Baltimore MD/Washington, DC

To Select Another Site Choose from List

Select Site:  

000
ASUS41 KLWX 161211
RWRLWX

REGIONAL WEATHER ROUNDUP
NATIONAL WEATHER SERVICE BALTIMORE MD/WASHINGTON DC
800 AM EDT TUE JUL 16 2019

Note: "FAIR" indicates few or no clouds below 12,000 feet
with no significant weather and/or obstructions to visibility.
 TC=TEMPERATURE CELSIUS

 * =Non NWS site. Station does not report precipitation (e.g. rain,
    snow, etc.), thunder, or fog.

DCZ001-MDZ009-015-VAZ040>042-051-053>054-161300-
WASHINGTON METRO

CITY           SKY/WX    TMP DP  RH WIND       PRES   REMARKS
WASHINGTON NAT FAIR      78  70  76 CALM      30.10R
DULLES         FAIR      76  68  76 NE3       30.11R
ANDREWS AFB    FAIR      78  72  82 CALM        N/A  HAZE
FT BELVOIR     FAIR      77  73  87 CALM      30.10R
QUANTICO       FAIR      76  73  91 NW3       30.10R
COLLEGE PARK*  FAIR      81  72  72 CALM      30.09S
LEESBURG*      FAIR      75  68  78 NE3       30.13R
MANASSAS*      FAIR      76  71  85 CALM      30.11R
GAITHERSBURG*  FAIR      75  69  81 CALM      30.13R

$$

MDZ006>007-011-014-161300-
BALTIMORE METRO

CITY           SKY/WX    TMP DP  RH WIND       PRES   REMARKS
BWI AIRPORT    FAIR      78  70  76 CALM      30.09R
MD SCIENCE CTR   N/A     82  70  66 MISG      30.09S
MARTIN STATE   MOSUNNY   75  73  94 CALM      30.10S
ANNAPOLIS      FAIR      84  76  76 VRB3      30.09R HX  93
ABERDEEN*      MOSUNNY   76  71  86 CALM      30.10R
FORT MEADE*      N/A     72  70  94 CALM      30.12S

$$

MDZ012-015-019>023-161300-
MARYLAND EASTERN SHORE

CITY           SKY/WX    TMP DP  RH WIND       PRES   REMARKS
OCEAN CITY     FAIR      80  75  84 CALM      30.11R
SALISBURY      FAIR      79  73  82 CALM      30.10R
BAY BRIDGE AP* FAIR      82  79  89 S3        30.09R HX  93
CAMBRIDGE*     SUNNY     79  77  94 SE5       30.10R
EASTON*        MOSUNNY   81  75  83 SE8       30.13R

$$

MDZ017>025-161300-
SOUTHERN MARYLAND

CITY           SKY/WX    TMP DP  RH WIND       PRES   REMARKS
PATUXENT RIVER FAIR      80  77  90 W5        30.10R
ST INIGOES     FAIR      84  76  76 SW6       30.09R HX  93
LEONARDTOWN*   FAIR      79  73  83 CALM      30.11S

$$

MDZ003>005-161300-
NORTH CENTRAL MARYLAND

CITY           SKY/WX    TMP DP  RH WIND       PRES   REMARKS
FREDERICK*     SUNNY     72  68  88 CALM      30.14R
HAGERSTOWN APT FAIR      74  66  76 S7        30.12R

$$

MDZ501>502-161300-
WESTERN MARYLAND

CITY           SKY/WX    TMP DP  RH WIND       PRES   REMARKS
OAKLAND*       FAIR      68  68 100 SW5       30.23R
CUMBERLAND*    FAIR      71  66  85 CALM      30.17R

$$

VAZ025>031-161300-
SHENANDOAH VALLEY

CITY           SKY/WX    TMP DP  RH WIND       PRES   REMARKS
WINCHESTER*    FAIR      73  70  88 CALM      30.13S
FRONT ROYAL*   FAIR      73  70  88 SW3       30.11S
LURAY*         FAIR      72  70  94 CALM      30.14R
NEW MARKET*    FAIR      70  69  96 CALM      30.14R
STAUNTON*      FAIR      70  68  94 SW3       30.18R
WAYNESBORO*    FAIR      68  68 100 SW5       30.18R

$$

WVZ021-048>050-054>055-161300-
EASTERN WEST VIRGINIA PANHANDLE

CITY           SKY/WX    TMP DP  RH WIND       PRES   REMARKS
MARTINSBURG    FAIR      72  66  81 CALM      30.11R
PETERSBURG*    FAIR      70  69  96 CALM      30.14S

$$

VAZ036>039-050-161300-
CENTRAL FOOTHILLS

CITY           SKY/WX    TMP DP  RH WIND       PRES   REMARKS
CHARLOTTESVILL FAIR      75  69  81 CALM      30.12R
CULPEPER*      FAIR      76  72  86 N3        30.12R
ORANGE*        FAIR      77  70  78 CALM      30.11R
GORDONSVILLE*  FAIR      75  74  99 CALM      30.11R
WARRENTON*     FAIR      78  70  78 CALM      30.10S

$$

VAZ055>057-161300-
NORTH AND CENTRAL PIEDMONT

CITY           SKY/WX    TMP DP  RH WIND       PRES   REMARKS
FREDERICKSBRG* FAIR      77  74  89 CALM      30.09S
STAFFORD*      FAIR      79  79 100 CALM      30.14R

$$

NCZ024-NYZ072-PAZ021-071-VAZ022-071-161300-
OTHER REGIONAL OBSERVATIONS

CITY           SKY/WX    TMP DP  RH WIND       PRES   REMARKS
NEW YORK CITY  FAIR      76  66  71 CALM      30.11R
PHILADELPHIA   PTSUNNY   75  68  78 CALM      30.10S
PITTSBURGH     PTSUNNY   74  69  85 VRB3      30.10R
ROANOKE        FAIR      74  68  81 N3        30.19R
RICHMOND       PTSUNNY   79  74  84 CALM      30.10S
RALEIGH        PTSUNNY   74  73  97 CALM      30.12R

$$

ANZ530>537-161300-
MARINE OBSERVATIONS

STATION/POSITION TIME  TEMP    WIND        PRES
                       AIR SEA DIR/SP/G
                 (UTC) (F)     (DEG/KT/KT) (MB)
THOMAS PT LIGHT  1200   80 82  170/  9/ 10 1019.9R
BALT KEY BRIDGE  1124   78      10/  3/  3 1018.8
COVE POINT       1124   79     200/  5/  6 1019.5
LEWISETTA        1124   80 85  230/  8/ 10 1019.0R
SOLOMONS ISLAND  1124   79 84  210/  3/  5 1018.5
PINEY POINT      1130          230/ 10/ 12   N/A

$$



 

View Past Reports for Baltimore MD/Washington, DC.

Products Courtesy of NOAA-NWS
NWS Information Parsing Script by Ken True at Saratoga Weather - Script by SE Lincoln Weather.